Location: ??????
(42.0089°N, 44.3281°E)
Time: 18:27:28
(UTC+00:00)

USA 267 - Pass Details

Date: 30 May 2022
Orbit: 1101 x 1106 km, 123.0° (Epoch: 28 June)

Event Time Altitude Azimuth Distance (km) Brightness Sun altitude
Exits shadow 23:02:20 30° 185° (S) 1,855 3.9 -20.2°
Maximum altitude 23:04:51 41° 231° (SW) 1,534 3.6 -19.9°
Drops below altitude 10° 23:10:58 10° 300° (WNW) 2,962 5.5 -19.3°
Sets 23:13:38 0° 308° (NW) 3,923 6.2 -19.1°
